Погода в Арке

Погода в Арке : погода сейчас, прогноз погоды и архив. Всё, что Вы хотите узнать о погоде в Арке!

Хотите узнать прогноз погоды в Арке? Тогда Вам сюда: Погода в Арке

Поиск расширенной информации на нашем сайте:

Другие новости

Новости СМИ2

Главная страница сайта

Новости сайта

03.07.2017

Напоминаем, что на нашем специализированном сайте Метеоцентр.Азия вы можете получить высокодетализированные автоматические прогнозы погоды по пунктам России, СНГ и мира в авиационном формате (включающие направление и скорость ветра, видимость, явления погоды, количество и форму облачности, нижнюю и верхнюю границу облачности).

Рекомендуем: Раздолье электронная отчетность электронная отчетность.

Погода в Арке - сегодня

Время (UTC), дата Ветер
(°,м/с) 
Видим.   Явления Облачность Т
(°С)
Тd
(°С)
f(%) Тe
(°С)
Pmin
(гПа)
dP
(гПа)
Po
(мм)
O2
(г/м3)
Тmin Tmax R s Состояние
почвы
03 20.02.18 260 (З) 20000 м    9/0 средняя, верхняя 
[Ac trans|Ci fib]
-14.8 -22.5 52 -18  1000.4  -0.7  731  313           
06 20.02.18 230 (ЮЗ) 20000 м    8/0 средняя, верхняя 
[Ac trans|Ci fib]
-12.3 -20.7 50 -14  1000  -0.2  731  310           
12 20.02.18 тихо ()   20000 м    3/0 верхняя 
[Ci fib]
-26.4 -28.6 82 -26  1004.1  1.2  733  329           
15 20.02.18 тихо ()   20000 м    ясно 
-30.1 -33.3 74 -30  1005.6  734  334           
18 20.02.18 010 (С) 20000 м    ясно 
-31.9 -35.1 73 -33  1006.8  734  337           
00 21.02.18 050 (СВ) 20000 м    ясно 
-25.5 -29.9 67 -26  1008.9  1.5  736  329  -33.2         
03 21.02.18 320 (СЗ) 20000 м    9/0 верхняя 
[Ci fib]
-16.4 -24.2 51 -19  1008.1  0.1  736  317           
06 21.02.18 320 (СЗ) 20000 м    9/0 средняя, верхняя 
[Ac trans|Ci fib]
-14.4 -24.4 42 -14  1008.5  0.6  737  315           
12 21.02.18 тихо ()   20000 м    8/0 верхняя 
[Ci fib]
-26 -29.4 73 -26  1013.3  1.7  740  331           
15 21.02.18 тихо ()   20000 м    8/0 верхняя 
[Ci fib]
-28.5 -31.4 76 -29  1014.3  0.7  740  335           
18 21.02.18 020 (С) 20000 м    8/0 верхняя 
[Ci fib]
-28.8 -31.9 75 -29  1015.1  0.7  741  335           
00 22.02.18 280 (З) 20000 м    4/0 средняя, верхняя 
[Ac trans|Ci fib]
-22.4 -26.2 71 -25  1015.8  0.9  742  327  -32         
03 22.02.18 310 (СЗ) 20000 м    8/0 средняя, верхняя 
[Ac trans|Ci fib]
-16.8 -23.6 56 -19  1014.8  -0.4  741  320           
06 22.02.18 020 (С) 20000 м    10/0 верхняя 
[Cs]
-14.2 -22.5 49 -16  1014.6  -0.1  741  317           
09 22.02.18 270 (З) 20000 м    10/0 верхняя 
[Cs]
-23.6 -27.1 73 -24  1017.2  1.5  743  329    -14       
12 22.02.18 270 (З) 20000 м    4/0 верхняя 
[Ci fib]
-24.7 -27.5 77 -28  1018.7  1.4  744  331           
15 22.02.18 280 (З) 20000 м    3/0 верхняя 
[Ci fib]
-23.7 -27.1 73 -27  1019.3  0.7  744  330           
18 22.02.18 280 (З) 20000 м    6/0 верхняя 
[Ci fib]
-25.9 -28.5 79 -29  1020.8  1.2  745  333           
00 23.02.18 280 (З) 20000 м    4/0 средняя, верхняя 
[Ac trans|Ci fib]
-20 -25.3 63 -23  1022.6  1.1  747  326           
03 23.02.18 360 (С) 20000 м    3/0 верхняя 
[Ci fib]
-14 -23.5 44 -19  1021.6  -0.4  746  319           
06 23.02.18 360 (С) 20000 м    3/0 верхняя 
[Ci fib]
-12.4 -22.8 42 -17  1020.8  -0.6  746  316           
09 23.02.18 320 (СЗ) 20000 м    ясно 
-17 -24.2 54 -19  1021.6  0.4  746  322    -12.3       
12 23.02.18 310 (СЗ) 20000 м    ясно 
-19.9 -25.2 63 -24  1021.4  -0.5  746  326           
15 23.02.18 320 (СЗ) 20000 м    10/0 верхняя 
[Cs]
-18.4 -25 56 -21  1020.2  -1  745  324           
18 23.02.18 300 (СЗ) 20000 м    10/0 верхняя 
[Cs]
-17.9 -25.2 53 -20  1018.9  -1.2  744  323           
Время (UTC), дата Ветер
(°,м/с) 
Видим.   Явления Облачность Т
(°С)
Тd
(°С)
f(%) Тe
(°С)
Pmin
(гПа)
dP
(гПа)
Po
(мм)
O2
(г/м3)
Тmin Tmax R s Состояние
почвы

Для получения пояснительной информации подведите курсор к названию столбца.

ПОГОДА в Арке - архив

Всё, что Вы хотите узнать о погоде в Арке - удобно и подробно!

Выберите нужную дату (начиная с 1 января 2015* года) и нажмите кнопку "Найти".
Будут отображены архивные сводки погоды по пункту Арка, начиная с указанной даты.


Отображать данные в формате CSV (для использования в таблицах Excel)


Внимание! Наш архив погоды предназначен исключительно для личного некоммерческого использования в познавательных целях. Если Вам необходимы официальные справки о состоянии погоды (для производственных, юридических, коммерческих и т.п. целей), обращайтесь в органы Росгидромета.

*Примечание: данная дата относится к архиву по метеостанциям СССР (Россия, СНГ, Балтия).
Архив по метеостанциям Зарубежной Европы и Азии (кроме Китая) хранится 10 дней, по другим регионам земного шара (Китай, Африка, Америка, Австралия, Океания) - 1 день.

Арка - район местоположения метеостанции


Название, широта, долгота, высота метеостанции:
Арка 60.1°ш. 142.3°д. 198 м над ур. моря [Российская Федерация]

Дополнительная информация

В oтличие oт бoльшинства пoгoдных сайтoв мы публикуем пoдрoбную метеoинфoрмацию в детальнoм прoфессиoнальнoм фoрмате.

Характеристики температуры и влажнoсти вoздуха измеряются на высoте 2 м в тени вдали oт зданий и деревьев.
Скoрoсть ветра измеряется на высoте 10 м (на урoвне рoста челoвека скoрoсть ветра ниже в 1.5-2 раза). Если метеoстанция нахoдится в гoрoде или в лесу, тo скoрoсть ветра занижена на 2-4 м/с пo сравнению с oткрытым местoм. Скoрoсть ветра над акватoриями крупных рек и oзёр, а также на вершинах хoлмoв на 2-5 м/с выше, чем в oбычных услoвиях.
Атмoсфернoе давление в разных тoчках местнoсти мoжет значительнo oтличаться oт давления на метеoстанции, в зависимoсти oт услoвий рельефа (при пoдъёме на 10 м давление пoнижается примернo на 1 мм рт.ст.).